Regional Weather Roundup
Issued by NWS

Home | Current Version | Previous Version | Graphics & Text | Print | Product List | Glossary On
Versions: 1 2 3 4 5 6 7 8 9 10 11 12 13 14 15 16 17 18 19 20 21 22 23 24 25 26 27 28 29 30 31 32 33 34 35 36 37 38 39 40 41 42 43 44 45 46 47 48 49 50
000
ASUS45 KPSR 290610
RWRAZ

ARIZONA HOURLY REGIONAL WEATHER ROUNDUP
NATIONAL WEATHER SERVICE PHOENIX AZ
1100 PM MST THU MAY 28 2015

NOTE: FAIR INDICATES FEW OR NO CLOUDS BELOW 12,000 FEET WITH NO
SIGNIFICANT WEATHER AND/OR OBSTRUCTIONS TO VISIBILITY.

AZZ001>003-036-290700-
NORTHWEST ARIZONA

CITY           SKY/WX    TMP DP  RH WIND       PRES   REMARKS
BULLHEAD CITY  PTCLDY    88  28  11 CALM      29.83R
KINGMAN        MOCLDY    74  21  13 S10       30.01R
6HR MIN TEMP:  74; 6HR MAX TEMP:  89;

$$

AZZ004>008-015-016-018-290700-
NORTH CENTRAL ARIZONA

CITY           SKY/WX    TMP DP  RH WIND       PRES   REMARKS
GRAND CANYON   PTCLDY    46  36  68 CALM      30.20S
6HR MIN TEMP:  45; 6HR MAX TEMP:  75;

WILLIAMS       PTCLDY    57  16  19 SW5       30.29R
PRESCOTT       MOCLDY    63  29  27 S9        30.12S
6HR MIN TEMP:  62; 6HR MAX TEMP:  81;

FLAGSTAFF      PTCLDY    45  25  45 CALM      30.25S
6HR MIN TEMP:  45; 6HR MAX TEMP:  72;

PAYSON         MOCLDY    66  28  24 CALM      30.14S
PAGE           PTCLDY    70  40  33 W3        30.07F
6HR MIN TEMP:  70; 6HR MAX TEMP:  85;

$$

AZZ009>014-017-290700-
NORTHEAST ARIZONA

CITY           SKY/WX    TMP DP  RH WIND       PRES   REMARKS
WINSLOW        CLEAR     66  28  24 SW14      30.08R
6HR MIN TEMP:  66; 6HR MAX TEMP:  86;

SAINT JOHNS    CLEAR     62  22  21 SW14      30.12S
6HR MIN TEMP:  61; 6HR MAX TEMP:  84;

WINDOW ROCK    CLEAR     53  27  36 NE5       30.18S
6HR MIN TEMP:  47; 6HR MAX TEMP:  77;

SHOW LOW       CLEAR     55  23  28 S7        30.20S
$$

AZZ023-290700-
GREATER PHOENIX AREA

CITY           SKY/WX    TMP DP  RH WIND       PRES   REMARKS
PHOENIX        MOCLDY    84  33  16 SW10      29.84S
6HR MIN TEMP:  84; 6HR MAX TEMP:  98;

BUCKEYE          N/A     77  27  15 NW6       29.87R
LUKE AFB       MOCLDY    82  33  17 S3        29.84S
6HR MIN TEMP:  80; 6HR MAX TEMP:  97; 6HR PCP: TRACE;

DEER VALLEY    MOCLDY    78  30  17 CALM      29.87S
6HR MIN TEMP:  78; 6HR MAX TEMP:  95;

SCOTTSDALE     MOCLDY    83  34  17 N5        29.89S
6HR MIN TEMP:  83; 6HR MAX TEMP:  95;

MESA-GATEWAY   CLEAR     77  37  24 SE3       29.89S
$$

AZZ027-028-290700-
SOUTHWEST MARICOPA COUNTY AND PINAL COUNTY

CITY           SKY/WX    TMP DP  RH WIND       PRES   REMARKS
CASA GRANDE    PTCLDY    79  34  19 W7        29.88R
6HR MIN TEMP:  79; 6HR MAX TEMP:  97;

GILA BEND      CLEAR     79  31  17 SW8       29.85S
6HR MIN TEMP:  79; 6HR MAX TEMP:  98;

$$

AZZ503-504-507>509-290700-
SOUTHEAST ARIZONA

CITY           SKY/WX    TMP DP  RH WIND       PRES   REMARKS
TUCSON         CLEAR     81  29  15 W10       29.98R
6HR MIN TEMP:  79; 6HR MAX TEMP:  97;

DAVIS-MONTHAN  CLEAR     78  29  16 W8        29.96R
6HR MIN TEMP:  78; 6HR MAX TEMP:  95;

NOGALES        CLEAR     66  26  22 E7        30.06R
6HR MIN TEMP:  66; 6HR MAX TEMP:  90;

SIERRA VISTA   CLEAR     71  21  15 W14       30.11R
6HR MIN TEMP:  70; 6HR MAX TEMP:  87;

DOUGLAS        CLEAR     65  24  21 CALM      30.06R
6HR MIN TEMP:  65; 6HR MAX TEMP:  90;

SAFFORD        CLEAR     75  22  13 NW12      29.95R
6HR MIN TEMP:  75; 6HR MAX TEMP:  95; 6HR PCP: TRACE;

$$

AZZ020-021-025-026-031-290700-
SOUTHWEST ARIZONA

CITY           SKY/WX    TMP DP  RH WIND       PRES   REMARKS
YUMA           PTCLDY    80  43  26 CALM      29.84R
6HR MIN TEMP:  80; 6HR MAX TEMP:  98;

$$

CAZ031-033-041-043-047-048-061-290700-
SOUTHERN CALIFORNIA

CITY           SKY/WX    TMP DP  RH WIND       PRES   REMARKS
DOWNTOWN L.A.  CLEAR     60  55  83 W3        29.96R
6HR MIN TEMP:  60; 6HR MAX TEMP:  71;

L.A. AIRPORT   PTCLDY    58  56  93 SW6       29.97R
6HR MIN TEMP:  58; 6HR MAX TEMP:  65;

SAN DIEGO      MOCLDY    62  55  77 W3        29.99R
6HR MIN TEMP:  62; 6HR MAX TEMP:  68;

BURBANK        CLEAR     63  55  75 E6        29.95S
6HR MIN TEMP:  63; 6HR MAX TEMP:  78;

ONTARIO        PTCLDY    64  55  72 W6        29.96R
6HR MIN TEMP:  64; 6HR MAX TEMP:  85;

RIVERSIDE      CLEAR     66  56  70 W3        29.96R
6HR MIN TEMP:  66; 6HR MAX TEMP:  85;

PALM SPRINGS   CLEAR     87  49  26 NW8       29.85R
6HR MIN TEMP:  87; 6HR MAX TEMP:  99;

EL CENTRO NAS  PTCLDY    79  40  24 SE8       29.81S
6HR MIN TEMP:  79; 6HR MAX TEMP:  98;

IMPERIAL       CLEAR     83  36  18 S8        29.79S
6HR MIN TEMP:  83; 6HR MAX TEMP:  98;

BLYTHE         PTCLDY    84  29  13 S10       29.82F
6HR MIN TEMP:  84; 6HR MAX TEMP:  99;

NEEDLES        PTCLDY    91  16   6 SW14      29.83R
6HR MIN TEMP:  90; 6HR MAX TEMP: 100;

$$

NVZ020-UTZ003-290700-
SOUTHERN NEVADA-UTAH

CITY           SKY/WX    TMP DP  RH WIND       PRES   REMARKS
LAS VEGAS      CLOUDY    87  28  12 S9        29.84R
6HR MIN TEMP:  87; 6HR MAX TEMP:  96;

SALT LAKE CITY PTCLDY    58  46  64 SW3       30.15R
6HR MIN TEMP:  58; 6HR MAX TEMP:  71;

$$

NMZ009-TXZ055-290700-
NEW MEXICO-WEST TEXAS

CITY           SKY/WX    TMP DP  RH WIND       PRES   REMARKS
ALBUQUERQUE    CLEAR     71  31  22 N9        30.07S
6HR MIN TEMP:  71; 6HR MAX TEMP:  85;

EL PASO        CLEAR     84  16   8 W9        29.96S
6HR MIN TEMP:  83; 6HR MAX TEMP:  93;

$$


........................KEY........................
SKY/WX - SKY CONDITION/WEATHER
TMP    - TEMPERATURE IN FAHRENHEIT
DP     - DEW POINT IN FAHRENHEIT
RH     - RELATIVE HUMIDITY IN PERCENT
WIND   - DIRECTION AND SPEED IN MILES PER HOUR (MPH)
VRB    - VARIABLE WIND DIRECTION
PRES   - MEAN SEA LEVEL PRESSURE IN INCHES OF MERCURY
         F - FALLING PRESSURE   R - RISING PRESSURE
         S - STEADY PRESSURE
VSB    - VISIBILITY IN MILES
HX     - HEAT INDEX IN FAHRENHEIT
WCI    - WIND CHILL INDEX IN FAHRENHEIT
TC     - TEMPERATURE IN CELSIUS WHICH IS ALSO KNOWN AS
         TEMPERATURE IN CENTIGRADE
AFB    - AIR FORCE BASE
         LUKE AFB IS LUKE AIR FORCE BASE
         DAVIS-MONTHAN IS DAVIS-MONTHAN AIR FORCE BASE
NAS    - NAVAL AIR STATION
         EL CENTRO NAS IS EL CENTRO NAVAL AIR STATION
N/A    - NOT AVAILABLE




USA.gov is the U.S. government's official web portal to all federal, state and local government web resources and services.